Flag for U.S.A. Weather past 2 weeks in Spokane, Washington, U.S.A.

Now
20 °F

Sunny.


Feels Like: 20 °F
Forecast: 17 / 45 °F
Wind: No wind

Location: Felts Field

Current Time: Mar 4, 2015 at 7:27:47 AM

Latest Report: Mar 4, 2015 at 6:53 AM


Visibility: 10 mi

Pressure: 30.34 "Hg

Humidity: 74%

Dew point: 13 °F

Location of SpokaneLocation

Historic Weather in Spokane — Graph

°F

Spokane temperature yesterday

Maximum temperature yesterday: 40 °F (at 3:53 PM)
Minimum temperature yesterday: 20 °F (at 5:53 AM)
Average temperature yesterday: 29 °F

Past Weeks' High & Low Weather Summary

 TemperatureHumidityPressure
High51 °F (Feb 17, 3:53 PM)96% (Feb 21, 4:53 AM)30.56 "Hg (Feb 21, 4:53 AM)
Low19 °F (Mar 4, 5:53 AM)16% (Feb 28, 2:53 PM)29.80 "Hg (Feb 27, 1:53 PM)
Average35 °F61%30.22 "Hg
* Reported Feb 17 5:53 AM — Mar 4 5:53 AM, Spokane, Weather by CustomWeather, © 2015

Note: Actual official high and low records may vary slightly from our data, if they occured in-between our weather recording intervals... More about our weather records

Advertising

Spokane weather history for previous 24 hours

 ConditionsComfort  
Time TempWeatherWind HumidityBarometerVisibility
5:53 AM
Wed, Mar 4
19 °FClear.No wind77%30.32 "Hg10 mi
4:53 AM20 °FClear.3 mph71%30.30 "Hg10 mi
3:53 AM21 °FClear.3 mph71%30.29 "Hg10 mi
2:53 AM21 °FClear.5 mph74%30.29 "Hg10 mi
1:53 AM23 °FClear.No wind72%30.28 "Hg10 mi
12:53 AM23 °FClear.No wind72%30.27 "Hg10 mi
11:53 PM
Tue, Mar 3
25 °FClear.3 mph69%30.26 "Hg10 mi
10:53 PM25 °FClear.3 mph66%30.24 "Hg10 mi
9:53 PM26 °FClear.No wind66%30.23 "Hg10 mi
8:53 PM28 °FClear.No wind58%30.22 "Hg10 mi
7:53 PM28 °FClear.3 mph58%30.21 "Hg10 mi
6:53 PM29 °FClear.No wind58%30.20 "Hg10 mi
5:53 PM35 °FClear.No wind40%30.19 "Hg10 mi
4:53 PM40 °FSunny.6 mph32%30.18 "Hg10 mi
3:53 PM40 °FSunny.6 mph32%30.18 "Hg10 mi
2:53 PM39 °FPassing clouds.3 mph30%30.20 "Hg10 mi
1:53 PM39 °FPassing clouds.8 mph34%30.20 "Hg10 mi
12:53 PM37 °FPassing clouds.3 mph34%30.22 "Hg10 mi
11:53 AM35 °FPassing clouds.6 mph40%30.23 "Hg10 mi
10:53 AM33 °FSunny.No wind43%30.24 "Hg10 mi
9:53 AM31 °FPassing clouds.3 mph47%30.25 "Hg10 mi
8:53 AM28 °FSunny.No wind53%30.26 "Hg10 mi
7:53 AM24 °FSunny.No wind71%30.25 "Hg10 mi
Weather by CustomWeather, © 2015

See weather overviewHow to use our weather pages